Flag for Thailand Weather past 2 weeks in Hat Yai, Thailand

Now
79 °F

Partly sunny.


Feels Like: 82 °F
Forecast: 79 / 90 °F
Wind: 10 mph from Southwest

Location: Hat Yai Airport

Current Time: Sep 16, 2014 at 3:23:41 PM

Latest Report: Sep 16, 2014 at 2:30 PM


Visibility: N/A

Pressure: 29.71 "Hg

Humidity: 89%

Dew point: 75 °F

Location of Hat YaiLocation

Historic Weather in Hat Yai — Graph

°F

Hat Yai temperature yesterday

Maximum temperature yesterday: 86 °F (at 11:00 AM)
Minimum temperature yesterday: 75 °F (at 6:00 AM)
Average temperature yesterday: 78 °F

Past Weeks' High & Low Weather Summary

 TemperatureHumidityPressure
High93 °F (Sep 3, 1:30 PM)100% (Sep 2, 4:30 AM)29.92 "Hg (Sep 2, 4:30 AM)
Low73 °F (Sep 5, 5:00 AM)49% (Sep 6, 4:30 PM)29.71 "Hg (Sep 1, 2:30 PM)
Average80 °F84%29.82 "Hg
* Reported Sep 1 2:00 PM — Sep 16 2:00 PM, Hat Yai, Weather by CustomWeather, © 2014

Note: Actual official high and low records may vary slightly from our data, if they occured in-between our weather recording intervals... More about our weather records

Advertising

Hat Yai weather history for previous 24 hours

 ConditionsComfort  
Time TempWeatherWind HumidityBarometerVisibility
2:00 PM
Sep 16
79 °FLight rain. Broken clouds.7 mph89%29.71 "HgN/A
1:30 PM77 °FLight rain. Broken clouds.5 mph94%29.74 "Hg6 mi
1:00 PM75 °FLight rain. Broken clouds.6 mph94%29.74 "Hg5 mi
12:30 PM79 °FRain. Broken clouds.12 mph94%29.74 "Hg3 mi
12:00 PM84 °FScattered showers. Broken clouds.9 mph79%29.74 "HgN/A
11:30 AM81 °FBroken clouds.9 mph84%29.77 "HgN/A
11:00 AM81 °FLight rain. Broken clouds.6 mph89%29.77 "Hg5 mi
10:30 AM81 °FLight rain. Broken clouds.5 mph89%29.77 "HgN/A
10:00 AM79 °FLight rain. Broken clouds.3 mph94%29.77 "Hg5 mi
9:30 AM82 °FScattered showers. Broken clouds.7 mph84%29.77 "Hg6 mi
9:00 AM81 °FLight rain. Broken clouds.5 mph89%29.77 "Hg6 mi
8:30 AM81 °FBroken clouds.6 mph89%29.77 "HgN/A
8:00 AM81 °FBroken clouds.6 mph89%29.74 "HgN/A
7:30 AM77 °FBroken clouds.5 mph94%29.74 "HgN/A
7:00 AM75 °FBroken clouds.3 mph100%29.74 "Hg6 mi
6:30 AM75 °FLight rain. Broken clouds.No wind100%29.74 "Hg3 mi
6:00 AM75 °FLight rain. Partly cloudy.3 mph94%29.74 "Hg5 mi
5:30 AM73 °FPartly cloudy.No wind100%29.74 "Hg5 mi
5:00 AM73 °FPartly cloudy.2 mph100%29.71 "Hg4 mi
4:30 AM75 °FFog.2 mph94%29.71 "Hg3 mi
4:00 AM75 °FFog.No wind94%29.71 "Hg3 mi
3:30 AM75 °FFog.No wind94%29.71 "Hg3 mi
3:00 AM75 °FFog.No wind94%29.74 "Hg3 mi
2:30 AM75 °FPartly cloudy.2 mph94%29.74 "Hg4 mi
2:00 AM75 °FPartly cloudy.2 mph94%29.77 "Hg4 mi
1:30 AM75 °FPartly cloudy.2 mph94%29.77 "Hg5 mi
1:00 AM75 °FPartly cloudy.3 mph100%29.77 "HgN/A
12:30 AM75 °FPartly cloudy.3 mph100%29.80 "HgN/A
12:00 AM75 °FPartly cloudy.2 mph100%29.80 "HgN/A
11:30 PM
Sep 15
77 °FLight rain. Partly cloudy.7 mph89%29.80 "HgN/A
11:00 PM77 °FLight rain. Partly cloudy.6 mph89%29.80 "HgN/A
10:30 PM77 °FLight rain. Partly cloudy.2 mph94%29.80 "HgN/A
10:00 PM77 °FLight rain. Partly cloudy.3 mph89%29.80 "HgN/A
9:30 PM77 °FPartly cloudy.5 mph89%29.77 "HgN/A
9:00 PM77 °FPartly cloudy.7 mph89%29.77 "HgN/A
8:30 PM77 °FPartly cloudy.7 mph89%29.74 "HgN/A
8:00 PM77 °FLight rain. Partly cloudy.5 mph89%29.74 "Hg6 mi
7:30 PM77 °FLight rain. Partly cloudy.8 mph89%29.74 "HgN/A
7:00 PM79 °FPartly cloudy.12 mph89%29.74 "HgN/A
6:30 PM77 °FPartly cloudy.6 mph94%29.74 "HgN/A
6:00 PM77 °FBroken clouds.5 mph100%29.71 "HgN/A
5:30 PM77 °FBroken clouds.3 mph94%29.71 "HgN/A
5:00 PM77 °FLight rain. Broken clouds.5 mph94%29.71 "Hg5 mi
4:30 PM77 °FLight rain. Broken clouds.5 mph94%29.74 "Hg5 mi
4:00 PM77 °FLight rain. Broken clouds.3 mph94%29.74 "Hg5 mi
3:30 PM77 °FLight rain. Broken clouds.6 mph94%29.74 "Hg4 mi
3:00 PM77 °FLight rain. Broken clouds.5 mph89%29.74 "Hg5 mi
Weather by CustomWeather, © 2014

See weather overviewHow to use our weather pages